Theta_e
320 325 326 327 328 326 326 327 327 327 328 329 328 327 328 328 327 321 316 309 307 313 316 314 314 313 313 313 312 312 313 311 311 312 312 312 314 314 316 319 322 324 326 328 329 329 330 330 330 330 330 330 330 331 331 331 331 331 330 330 330 330 330 330 331 331 332 332 331 331 331 331 330 330 331 332 333 333 332 332 332 333 333 332 332 330
321 328 328 325 327 325 325 326 325 324 326 327 327 327 327 327 326 320 315 311 307 313 319 314 313 314 313 313 312 312 312 311 311 312 312 312 313 314 315 316 319 321 323 326 326 327 328 328 329 329 329 330 330 330 330 330 331 331 331 330 330 330 330 330 330 331 332 332 332 332 332 332 331 331 330 331 333 333 333 333 332 333 333 333 332 332
323 329 328 324 325 325 324 324 324 325 324 326 326 326 329 325 323 320 314 310 308 313 320 315 313 315 315 314 313 312 311 311 311 311 312 313 313 313 313 314 316 317 319 320 322 324 326 326 328 329 329 329 329 329 330 330 330 330 330 330 330 330 330 330 330 331 332 332 332 332 332 332 332 331 331 330 331 332 332 333 333 333 332 332 332 332
327 328 326 323 324 324 324 322 323 324 323 324 324 327 328 322 323 325 316 310 309 311 313 312 311 314 315 315 314 313 312 311 312 311 311 312 313 313 313 314 314 314 316 316 318 321 323 325 327 327 328 329 329 329 329 329 330 330 330 331 331 331 331 331 330 331 332 332 332 332 333 332 332 331 331 330 330 330 330 331 331 332 332 332 332 331
326 325 323 321 322 323 322 320 321 324 324 321 322 327 326 321 321 322 316 312 312 310 309 311 316 318 318 319 317 315 313 311 311 311 311 311 312 312 313 313 313 312 314 315 316 317 320 322 324 326 327 328 328 329 329 329 329 330 330 330 331 331 331 331 331 330 331 332 332 332 332 332 332 332 331 331 330 330 330 330 330 330 331 331 331 332
322 319 320 320 321 322 322 321 322 324 325 322 321 323 324 322 321 317 315 317 321 320 312 312 323 324 318 318 318 316 314 312 312 311 310 311 310 311 311 311 312 312 312 312 313 315 317 318 320 323 326 327 328 328 328 329 329 329 330 330 331 331 331 331 331 331 330 331 332 332 332 332 332 332 332 331 331 331 330 330 330 329 329 330 330 331
318 315 319 321 321 323 323 322 322 323 326 326 321 320 321 321 319 316 316 320 326 324 313 311 321 323 318 317 318 316 316 314 314 312 311 311 310 310 310 309 311 311 311 312 312 312 313 315 317 319 322 324 326 326 326 328 328 328 328 329 330 330 330 331 331 331 330 331 331 332 332 332 332 332 331 331 331 331 330 330 330 329 329 329 329 330
314 314 319 321 321 323 324 324 321 322 327 327 319 316 318 318 319 318 318 321 320 317 315 313 315 319 318 318 317 316 317 317 316 315 314 313 312 311 310 310 310 310 311 312 313 311 311 313 314 315 317 319 321 322 325 327 327 327 327 328 329 329 330 330 330 330 330 330 330 331 331 331 332 331 331 331 331 331 330 330 330 329 329 329 328 329
314 317 319 319 321 323 324 323 319 320 325 322 314 315 318 317 319 318 316 318 315 315 322 318 314 321 324 319 315 313 315 317 317 317 316 315 314 313 311 311 311 311 311 311 312 311 311 312 312 312 314 314 315 318 322 323 325 326 328 328 329 329 329 329 329 330 330 330 330 330 330 330 331 331 331 331 330 330 330 329 329 329 329 328 328 328
313 315 317 319 322 322 321 319 317 321 322 316 313 315 315 315 317 317 318 319 316 318 325 321 316 323 327 321 318 315 314 317 318 317 317 316 316 315 313 313 313 312 311 310 310 310 311 311 311 310 311 311 312 313 316 319 322 324 326 327 328 328 328 328 328 329 329 329 329 329 329 330 330 330 330 330 330 330 329 329 329 328 329 329 328 328
310 310 314 317 318 318 316 315 317 320 317 313 314 314 314 316 317 318 320 319 320 323 324 321 317 320 325 324 322 319 315 315 317 317 317 315 315 315 314 313 312 310 309 309 308 309 309 309 308 308 308 308 309 309 311 314 316 319 322 324 326 327 327 328 328 328 328 329 329 329 329 329 329 329 329 329 329 329 329 329 329 328 328 328 328 328
311 313 314 313 311 313 315 315 314 314 313 313 315 316 317 319 317 318 318 318 324 327 320 314 313 317 324 323 319 318 315 312 313 314 315 314 314 314 314 312 310 309 308 308 309 310 309 308 307 307 307 307 307 307 308 310 312 316 319 322 325 325 326 327 327 327 328 328 328 328 328 329 329 329 329 329 329 329 329 329 328 328 328 328 328 328
314 314 312 311 310 313 317 317 313 311 313 315 315 319 323 322 321 324 323 321 325 324 312 308 311 315 320 320 317 317 316 314 313 312 312 313 312 312 313 311 309 309 309 309 311 312 310 308 308 308 307 307 307 306 306 307 309 312 316 320 324 325 325 326 326 327 328 327 328 328 328 328 329 329 329 328 328 328 328 328 328 328 329 329 328 328
316 313 311 312 312 313 317 319 316 312 314 316 317 323 326 325 327 331 327 324 326 320 309 307 313 316 319 318 315 316 316 314 312 311 311 311 310 311 310 309 309 309 309 309 309 309 308 308 308 307 307 307 306 305 305 305 306 309 312 317 321 322 323 325 326 327 327 327 327 327 327 328 328 329 329 329 328 328 328 328 328 328 328 329 328 328
321 318 314 315 314 314 316 318 317 314 314 316 318 321 324 324 328 332 329 327 327 319 311 310 317 322 321 317 312 311 312 311 310 309 308 308 308 307 307 308 310 310 309 309 308 307 307 307 307 307 306 307 306 305 305 304 304 306 310 314 317 319 322 325 326 326 326 327 327 327 327 328 328 328 329 329 329 329 328 328 328 328 328 328 328 329
322 317 312 313 313 313 316 316 314 315 315 316 315 318 322 322 321 321 320 319 319 318 315 313 317 319 317 315 313 313 313 311 311 309 306 308 308 308 310 311 312 312 311 310 309 309 309 308 308 308 307 307 306 306 305 304 304 304 307 313 316 318 321 323 324 325 325 326 326 327 327 327 327 328 328 329 329 328 328 328 327 328 328 328 329 330
320 315 309 311 312 312 315 315 313 316 317 315 315 318 318 315 315 316 315 311 312 320 322 315 316 317 316 317 315 313 314 312 312 311 308 310 311 313 316 316 315 314 313 311 309 308 308 309 308 308 307 306 306 307 306 306 304 303 305 310 315 317 319 322 323 324 324 325 326 326 326 327 327 327 328 328 328 328 328 327 327 327 327 328 329 330
317 313 308 310 313 311 311 313 313 314 315 316 317 317 315 314 315 316 318 314 313 320 321 314 316 318 318 320 315 311 314 314 314 313 310 310 312 314 316 316 315 313 311 310 309 308 308 308 309 308 306 305 307 308 308 308 307 305 304 307 311 316 318 320 322 323 323 324 324 325 325 326 326 327 327 327 328 328 328 327 327 327 327 328 329 330
314 313 309 309 311 309 308 313 315 312 312 313 315 316 316 319 319 317 319 319 318 320 319 314 313 313 315 318 314 314 315 314 314 313 311 310 311 313 314 316 315 314 313 312 311 310 309 309 309 307 306 305 307 309 309 308 308 307 306 305 307 312 315 317 319 321 322 323 323 324 324 325 326 326 326 327 327 327 327 327 326 327 327 328 329 329
313 315 312 308 309 310 310 313 317 315 312 311 313 315 315 317 319 318 318 320 320 321 320 317 315 314 315 315 314 316 315 312 313 313 312 311 311 313 314 315 317 318 317 315 313 311 310 309 308 306 305 306 307 309 310 310 309 308 307 306 306 308 311 315 317 318 320 322 322 323 323 324 324 325 326 326 326 326 326 326 326 326 327 328 328 329
311 313 313 309 308 311 313 314 316 316 314 313 314 316 315 313 314 316 316 315 316 318 317 318 319 318 314 312 312 314 313 313 314 313 314 312 311 313 315 315 318 319 318 316 314 312 311 308 307 305 305 306 307 309 311 311 310 310 309 308 307 307 308 311 314 317 319 321 322 322 323 323 324 324 325 325 326 326 326 326 326 326 327 328 328 328
311 312 313 310 309 312 313 313 314 315 314 315 315 316 317 314 313 317 319 313 312 314 314 314 317 318 314 310 311 312 312 312 311 310 311 310 309 311 316 317 318 317 316 314 312 312 312 309 307 306 305 306 307 308 310 312 312 312 311 310 309 308 308 309 312 315 317 318 320 321 322 322 323 323 324 324 325 325 325 325 325 326 327 327 328 328
311 312 312 311 311 312 310 308 309 312 312 313 313 314 317 315 313 318 320 314 311 312 311 310 314 318 314 311 310 310 310 308 307 308 309 309 310 312 316 319 318 316 314 311 309 310 311 308 306 305 304 305 306 308 310 311 312 313 312 312 310 309 309 309 310 312 315 317 318 319 320 321 322 323 323 323 324 324 325 325 325 326 326 327 327 328
311 312 312 311 310 310 308 307 307 308 309 311 311 310 314 315 314 315 315 314 314 313 312 313 317 318 313 311 310 309 308 308 309 310 311 313 315 315 317 320 320 317 314 310 309 310 310 307 305 304 305 306 306 307 309 310 311 311 311 312 311 310 310 309 308 310 312 314 316 318 319 320 321 322 322 323 323 324 324 325 325 325 326 327 327 327
313 313 312 312 312 312 311 310 311 309 308 311 312 310 312 315 314 313 311 311 314 317 315 317 319 317 312 312 312 310 309 309 309 309 310 314 316 315 316 318 318 316 314 312 313 314 314 313 311 308 307 307 306 307 308 309 309 309 310 310 311 312 311 310 309 308 309 312 314 316 317 319 320 321 321 322 323 323 324 324 325 325 325 326 326 326
314 314 313 314 315 315 315 314 314 312 309 310 311 311 312 314 314 313 312 312 315 317 316 317 318 315 311 311 312 309 309 309 309 308 308 310 313 315 317 319 319 317 315 313 313 316 316 315 313 309 307 306 305 306 306 307 308 308 309 310 311 311 311 311 310 308 309 310 311 313 315 317 319 320 321 321 322 322 323 323 324 324 324 324 325 324
314 313 314 316 316 317 317 317 315 312 310 311 312 312 312 314 314 314 314 314 316 315 315 316 317 314 311 311 312 311 310 311 311 311 309 309 313 317 320 321 318 314 312 310 311 313 313 313 313 311 308 305 305 305 305 306 307 308 308 310 311 310 309 309 310 309 308 308 309 311 314 316 317 319 320 320 321 322 322 323 323 323 323 323 323 323
315 314 314 316 317 317 318 317 314 312 312 312 313 313 312 313 315 315 315 316 315 315 316 317 317 316 314 312 312 313 311 311 312 312 311 309 311 314 316 314 311 309 309 309 310 311 311 312 313 312 309 306 304 304 305 306 307 308 309 309 310 309 307 307 308 308 307 308 309 311 312 314 316 318 319 320 320 320 321 321 322 322 322 322 321 321
315 314 315 316 315 314 314 315 314 313 313 313 312 313 313 312 314 315 316 316 315 316 318 318 317 317 315 312 312 312 312 312 313 313 311 308 309 311 311 310 310 311 311 311 311 312 311 312 312 312 309 306 304 304 304 305 307 308 308 309 310 309 308 307 306 306 307 308 309 311 312 314 315 317 318 319 319 320 320 320 320 320 320 320 320 320
315 315 315 314 313 311 312 314 315 314 314 313 312 313 312 312 313 314 314 315 315 315 316 317 316 315 315 313 312 313 313 313 313 313 311 310 311 312 312 311 312 312 312 311 312 312 311 311 311 310 308 307 305 304 304 305 306 306 306 307 309 310 309 307 306 305 306 308 310 311 313 314 315 316 317 318 318 318 319 318 318 318 317 317 318 317
315 314 312 312 312 309 309 312 314 314 314 313 313 313 312 312 313 313 314 314 314 314 314 314 314 314 313 312 312 313 313 311 311 311 311 311 312 312 312 312 312 312 311 311 311 311 311 311 310 309 308 307 305 304 304 304 304 305 305 306 308 309 309 308 307 306 306 308 310 311 313 314 314 315 315 316 316 316 316 316 316 316 315 315 315 315
313 311 310 312 313 309 308 310 312 312 313 313 313 314 313 313 313 313 313 313 313 314 313 313 314 313 312 312 312 311 310 310 310 311 311 312 312 312 312 312 312 311 311 311 311 311 310 309 309 309 308 306 304 303 304 304 304 304 304 305 307 309 309 308 307 307 307 308 309 311 312 313 314 314 313 313 313 314 314 314 314 313 313 313 313 314
312 310 310 312 314 311 310 311 312 313 313 313 314 314 313 313 313 312 312 312 313 313 313 313 313 313 312 312 311 311 310 311 311 311 312 313 313 313 312 311 311 311 311 310 310 309 309 307 307 306 305 304 303 303 304 304 304 304 304 304 305 308 309 309 308 308 307 308 309 311 312 312 313 312 312 312 312 312 312 311 311 311 311 312 313 314
313 312 311 313 314 311 310 311 313 314 314 315 316 316 313 312 312 312 312 312 312 312 312 312 312 313 314 312 311 311 311 311 311 312 313 313 313 313 311 310 310 310 310 310 308 308 307 307 306 304 303 303 303 303 303 304 304 304 304 304 304 306 308 308 308 308 308 308 309 310 311 311 311 311 311 311 311 310 310 309 309 310 310 311 311 312
314 313 312 314 313 309 308 311 314 314 314 317 319 316 313 311 311 312 312 312 311 311 311 312 311 312 313 312 311 312 312 311 312 312 312 311 310 311 310 309 309 309 309 308 308 308 308 307 306 304 303 303 302 302 303 303 304 304 303 303 303 304 306 308 309 308 308 309 309 309 310 310 309 309 310 310 310 309 308 308 308 308 308 308 309 310
313 313 313 312 309 308 310 312 315 316 315 316 317 313 311 312 311 312 313 312 311 310 311 312 311 311 312 311 310 312 313 311 310 309 309 308 308 308 309 309 308 308 308 308 308 308 308 305 304 303 302 302 301 301 301 302 303 303 303 302 302 303 305 307 308 308 308 308 308 309 310 309 309 308 308 308 308 307 307 307 307 307 308 308 308 308
313 311 312 311 308 309 312 313 314 315 315 316 315 311 310 311 310 312 314 313 311 310 310 311 311 311 312 310 309 311 312 309 308 309 309 310 309 309 308 309 308 308 308 307 307 306 304 302 301 301 301 301 301 301 301 302 302 302 302 301 301 301 303 304 306 307 307 307 308 309 309 309 309 308 308 308 307 307 307 307 307 307 308 307 307 307
314 312 314 314 309 307 310 312 313 314 315 316 314 310 310 311 311 312 314 314 313 311 310 310 311 311 311 310 310 311 309 307 308 310 310 311 311 310 309 309 308 307 307 305 303 302 302 301 301 301 301 301 301 301 301 301 302 302 301 300 299 299 301 302 303 304 305 306 307 308 308 309 309 309 309 308 308 307 307 307 307 307 307 306 306 306
314 312 314 315 309 306 310 313 313 314 315 314 312 310 310 312 312 312 312 313 314 313 310 310 310 310 310 311 311 310 308 308 310 311 310 311 311 310 311 311 307 303 302 302 301 300 300 301 301 302 301 301 301 301 301 302 301 301 300 299 298 298 299 300 301 302 303 305 306 306 307 307 307 307 307 307 307 307 306 305 305 305 305 304 304 304
312 311 312 314 310 309 312 313 313 313 314 313 311 309 308 311 312 312 313 314 314 314 312 310 309 310 311 311 310 309 308 310 311 311 312 311 309 307 308 309 308 303 299 299 300 299 299 300 300 301 301 301 301 301 301 301 301 300 300 299 298 297 297 298 299 300 302 303 304 305 305 306 305 305 305 305 306 305 304 303 303 303 302 302 301 301
311 311 311 313 312 310 312 314 314 313 314 314 311 308 308 311 312 313 315 314 313 312 311 310 310 311 312 311 309 308 309 310 311 313 311 309 309 307 303 301 301 299 298 298 298 298 298 299 299 300 300 301 301 301 301 301 300 300 300 299 297 297 297 298 298 298 300 301 302 303 303 304 304 304 304 304 304 303 302 301 301 301 301 300 299 297
312 312 312 313 313 311 311 313 313 314 314 313 308 305 308 312 313 313 315 314 312 311 310 310 311 312 311 310 308 308 309 309 310 311 308 305 307 308 304 300 299 299 298 297 297 297 297 298 299 299 300 300 300 301 301 300 299 299 299 298 298 298 298 298 297 297 298 300 301 302 302 302 303 303 302 302 302 302 301 300 299 300 299 298 296 295
313 313 313 313 313 311 311 312 313 315 314 311 307 305 308 312 314 313 313 312 310 311 310 309 309 309 309 308 308 309 310 308 307 308 307 304 303 304 302 300 300 299 297 296 296 295 296 297 297 298 299 299 299 299 299 299 298 299 298 298 298 299 298 298 298 297 297 299 299 300 300 300 300 301 301 301 301 301 300 299 298 297 296 295 294 293
312 313 314 313 312 312 314 313 313 313 310 308 309 309 309 311 313 313 312 313 310 308 307 308 308 306 307 308 308 308 308 308 307 308 307 306 307 308 306 302 299 297 295 295 296 294 294 296 296 296 297 298 298 297 297 297 297 297 297 297 298 298 298 298 298 297 297 297 298 298 298 298 298 298 298 298 298 298 297 296 296 295 294 293 292 291
312 312 313 313 311 311 313 312 310 309 307 307 312 313 310 310 312 312 312 312 312 308 306 307 308 306 306 307 307 306 307 309 310 308 307 308 310 312 309 303 297 294 294 294 294 294 294 295 295 296 296 296 295 295 295 295 295 296 296 297 297 297 297 297 297 297 297 297 297 297 297 297 296 296 296 296 296 295 294 294 293 292 291 291 290 289
312 310 312 313 310 309 311 310 307 308 307 307 310 313 310 309 311 311 311 312 312 311 309 308 308 306 305 305 307 308 308 309 310 309 307 309 311 309 306 302 296 293 293 293 293 293 294 294 294 295 295 293 293 294 294 294 294 294 295 296 296 296 296 296 296 296 296 296 296 295 296 296 295 295 295 294 294 294 293 293 292 291 290 289 289 288
311 310 311 312 310 310 312 310 308 308 307 306 308 310 310 310 309 308 310 312 311 308 308 309 306 304 303 304 308 311 309 307 309 311 310 310 310 307 305 304 298 292 291 291 291 292 293 293 294 294 293 291 291 292 292 293 293 294 294 294 295 295 295 295 295 295 294 294 294 294 294 294 293 293 293 293 293 292 292 292 292 291 290 289 288 288
310 310 311 311 310 311 311 309 308 309 307 306 307 309 308 309 309 307 306 307 305 304 305 304 303 302 303 303 307 312 312 308 309 311 310 308 305 301 300 299 295 291 290 290 290 292 292 292 292 291 290 289 289 290 291 291 292 293 293 293 293 293 293 293 293 293 293 293 292 292 291 291 291 291 291 291 291 291 291 291 291 291 290 290 290 289
308 309 311 311 310 310 310 307 306 307 306 304 306 308 308 308 309 306 302 301 303 306 306 303 300 302 304 305 307 312 312 308 307 309 308 305 302 299 296 293 291 289 288 288 289 290 291 290 290 289 288 287 288 290 290 290 291 291 292 292 291 291 291 291 292 292 292 291 291 291 290 290 290 290 289 289 290 289 289 290 290 290 290 291 291 290
307 309 310 309 309 311 310 307 306 308 308 307 306 307 308 307 306 306 305 303 302 305 307 306 304 302 302 303 306 310 311 307 304 305 304 301 297 294 292 290 288 286 287 287 288 289 289 289 289 288 287 287 288 289 289 289 290 290 290 290 290 290 289 289 290 290 290 290 289 289 289 288 288 288 288 288 288 288 288 288 288 288 288 288 289 289
308 310 309 309 311 312 310 308 307 309 310 309 307 306 306 305 306 306 306 304 302 302 304 307 307 305 304 300 298 303 310 308 301 300 299 294 290 289 288 287 287 287 286 287 288 288 287 287 287 287 286 286 287 287 288 287 288 288 289 289 289 289 289 288 288 288 288 288 288 288 287 287 287 287 287 286 286 286 286 286 286 286 286 286 286 286
Wind_Speed
6 8 9 10 12 14 14 15 11 5 8 10 7 7 7 6 5 2 2 2 1 4 7 7 9 12 13 12 12 10 5 7 12 11 9 9 8 7 8 9 10 11 11 8 12 15 17 19 19 19 20 22 25 26 26 28 29 29 28 26 25 25 25 27 27 26 26 26 26 26 26 26 27 30 32 32 30 28 23 21 24 26 26 25 25 24
5 10 10 10 13 14 14 14 9 4 5 8 7 7 7 6 5 2 1 1 2 3 6 5 8 13 14 13 12 10 9 11 12 12 12 12 10 8 8 10 10 10 7 5 10 14 16 18 19 21 22 24 26 26 27 29 29 29 28 27 27 26 26 28 29 29 29 29 29 28 27 28 27 27 31 34 34 33 31 27 25 26 26 26 27 26
6 9 11 12 13 13 12 12 11 9 8 7 6 5 6 4 3 3 3 1 1 2 7 6 8 14 15 14 14 12 12 12 12 13 13 13 11 9 9 10 9 9 8 8 12 14 15 18 19 21 24 26 26 26 27 29 29 29 28 28 28 28 27 28 30 31 31 31 31 28 24 24 24 24 29 34 35 34 33 32 30 29 28 28 29 29
6 8 14 13 12 14 12 11 11 9 6 4 5 6 5 2 2 4 3 2 2 2 6 8 9 12 14 14 15 14 13 12 11 12 13 12 12 12 10 9 8 10 10 10 12 12 14 16 18 22 24 25 26 26 28 29 29 29 29 30 29 29 28 27 29 32 32 29 29 28 23 22 24 25 28 31 34 34 33 34 34 33 33 32 31 30
3 6 13 12 12 15 11 10 11 8 5 4 5 7 5 3 4 3 1 1 3 3 2 8 10 9 10 12 13 10 9 10 10 9 11 10 10 11 11 9 8 9 10 10 11 11 13 16 19 23 24 25 25 26 28 30 30 30 31 32 32 30 29 28 27 30 32 28 27 28 26 25 27 27 27 27 30 32 33 34 34 35 35 34 32 31
3 7 11 12 11 14 11 10 11 8 6 4 6 9 7 5 6 2 1 3 5 4 1 4 8 5 2 7 9 5 5 8 7 7 9 8 8 10 10 10 10 9 9 10 11 11 10 15 18 20 22 23 26 31 33 33 33 33 33 34 33 32 31 31 28 27 28 28 27 29 29 28 29 30 29 30 31 31 33 34 34 34 34 33 32 31
3 6 11 14 13 13 11 9 11 11 6 3 5 8 7 6 4 3 2 3 4 4 1 1 6 6 4 8 10 8 9 10 8 9 9 8 7 9 9 10 10 10 10 9 11 12 11 14 16 18 22 25 31 38 38 34 35 38 39 37 36 36 35 34 32 27 26 28 28 30 33 33 32 32 32 34 35 33 33 34 34 33 33 32 31 31
6 9 10 13 12 11 10 9 11 13 9 3 5 9 9 7 6 5 4 3 3 4 3 3 3 8 9 9 9 9 12 14 13 13 11 9 10 10 10 10 10 11 11 9 10 12 14 15 16 19 25 30 37 40 35 35 40 42 41 39 37 37 37 37 35 31 28 28 28 30 34 36 35 34 32 32 34 33 33 34 34 34 33 31 30 30
6 11 13 14 11 9 8 7 12 13 7 2 5 9 8 6 5 4 2 2 1 4 6 4 3 7 9 4 4 5 10 15 14 13 12 11 12 11 10 10 10 11 11 10 10 12 13 15 17 19 21 26 34 36 35 38 40 37 35 33 31 32 36 39 36 33 32 30 28 30 32 34 36 35 33 30 29 31 32 33 34 34 33 32 29 29
2 6 11 15 11 7 6 8 13 14 5 3 6 8 7 4 4 3 1 1 1 3 9 5 6 6 9 4 5 4 7 12 10 8 10 11 11 10 8 9 9 8 7 8 9 10 11 12 14 16 17 22 30 35 36 38 36 34 34 31 30 32 36 38 34 34 37 34 29 30 32 33 34 34 33 31 29 28 30 32 33 33 32 32 31 30
1 0 2 6 5 4 8 7 5 7 7 9 8 7 8 4 3 2 1 2 1 5 7 6 10 7 7 4 6 3 2 5 6 6 8 10 11 10 7 6 6 5 4 5 7 9 11 12 13 16 19 23 28 31 31 33 34 35 36 34 34 36 35 34 33 33 35 34 31 31 33 33 34 32 32 33 33 31 30 31 32 32 32 33 32 31
3 5 3 1 0 4 10 6 4 3 8 9 6 6 6 3 2 1 1 1 5 6 1 0 6 9 9 4 2 3 4 4 5 6 7 9 10 9 4 2 3 3 4 5 5 7 8 9 11 14 17 19 22 24 26 29 32 33 34 33 33 35 34 34 34 33 32 33 32 32 33 33 33 31 31 34 34 33 33 33 31 31 32 33 32 31
4 3 1 2 1 4 10 8 3 2 6 5 5 7 6 2 2 3 3 3 6 4 1 2 1 7 11 7 6 11 12 8 7 6 8 9 10 8 4 2 2 4 5 5 5 5 5 5 7 9 12 13 16 21 24 27 29 31 33 31 30 33 37 36 35 33 33 33 33 33 33 33 33 32 32 33 32 31 33 34 33 32 33 33 32 32
4 1 2 4 2 4 9 9 5 4 5 6 7 8 6 5 5 8 6 4 5 3 2 1 1 5 10 6 6 12 11 7 5 6 8 9 9 8 6 6 6 6 7 6 5 5 5 5 6 7 8 10 12 17 21 25 27 30 32 32 32 35 36 35 34 34 33 33 35 36 34 33 32 31 32 32 29 28 28 30 32 33 35 35 35 35
9 2 7 10 4 7 11 7 6 8 7 6 6 4 3 4 5 7 7 5 3 1 2 3 2 5 5 2 2 6 6 7 7 6 6 6 6 6 6 7 8 7 6 5 5 6 6 6 7 8 9 11 13 15 18 22 25 28 30 31 34 36 34 32 33 33 32 33 34 34 32 31 30 30 30 30 29 26 24 27 29 32 36 36 36 37
8 1 3 3 4 10 10 3 7 12 7 4 2 1 3 2 2 2 1 1 0 0 3 5 4 5 3 6 10 9 7 9 8 4 3 5 4 3 5 6 6 6 5 4 4 5 6 6 7 8 9 12 15 16 18 21 23 25 27 27 29 32 30 29 31 33 31 31 30 30 30 29 29 29 27 28 29 25 23 26 29 33 37 38 37 36
6 2 2 3 5 10 7 6 9 9 6 5 4 5 2 2 2 2 1 2 1 4 4 4 6 6 5 9 10 6 6 8 7 5 3 3 3 3 4 3 4 5 5 4 5 5 6 6 7 8 10 14 16 16 18 19 21 22 24 24 24 26 25 25 27 30 30 28 28 29 29 30 30 29 28 27 27 27 24 24 28 32 36 38 37 35
5 5 2 1 7 5 1 5 8 2 2 6 7 7 4 2 2 1 3 1 2 6 3 3 8 7 5 5 2 2 5 7 6 4 4 1 3 3 3 3 3 4 4 5 5 4 5 5 6 8 11 14 14 14 16 16 17 19 21 23 22 22 24 24 25 26 26 27 29 29 29 30 31 30 30 29 28 28 27 25 28 33 35 37 36 35
6 7 2 2 3 3 2 5 7 2 1 1 4 8 6 3 4 4 3 3 4 6 4 4 6 7 8 6 3 6 8 8 6 2 5 2 2 2 3 3 3 4 4 4 5 4 4 4 6 8 11 13 13 13 14 14 15 16 18 21 22 23 24 25 26 27 25 24 27 29 29 29 30 30 30 30 28 27 26 28 32 34 35 36 35 34
5 5 4 1 2 5 4 6 9 8 3 2 2 7 3 2 4 5 4 2 3 6 4 3 2 4 7 7 8 10 7 6 6 2 4 4 2 2 2 3 3 4 3 4 4 4 4 5 7 9 11 12 12 12 13 13 14 15 16 18 21 24 25 25 26 27 25 22 24 28 29 28 28 29 30 28 27 25 26 30 33 34 34 35 34 33
2 2 6 4 3 6 6 7 10 12 9 6 7 9 6 2 1 2 3 2 2 4 4 3 4 5 3 4 8 10 7 5 5 3 1 4 2 3 3 3 3 3 4 4 4 4 5 6 8 11 12 12 11 11 11 11 13 14 15 16 18 21 24 25 26 24 22 20 21 25 28 29 28 29 30 30 29 28 29 31 33 34 34 34 34 34
2 3 8 7 7 7 4 1 2 7 10 9 8 10 11 8 5 5 6 3 0 2 2 2 6 6 2 4 6 8 5 3 1 2 2 3 5 6 4 4 3 3 4 5 4 4 5 6 7 10 13 12 10 10 10 11 12 14 15 16 16 18 21 23 25 23 19 19 20 22 25 28 29 29 30 31 31 32 32 32 32 34 34 34 34 34
1 4 8 7 6 4 3 4 2 1 3 3 3 6 9 8 7 7 6 4 3 2 1 1 5 5 2 5 5 5 2 1 1 4 4 4 6 5 4 4 3 4 5 5 5 4 5 6 8 12 14 13 11 11 11 12 13 14 15 15 16 17 18 20 22 21 18 18 20 21 24 27 28 29 30 31 32 33 34 34 34 34 34 35 35 35
2 5 7 7 4 3 4 3 2 2 1 5 5 3 5 7 6 2 1 4 6 5 4 3 6 5 1 3 2 3 1 1 4 5 4 4 3 3 4 4 3 4 5 5 5 4 4 6 8 11 12 12 12 13 13 12 12 12 13 14 15 17 17 18 19 19 18 18 20 22 24 26 28 29 30 32 33 34 35 35 35 35 35 35 35 36
4 5 7 9 7 3 2 2 4 4 6 7 5 4 6 8 6 1 1 3 5 10 12 8 6 4 2 2 2 3 3 4 5 4 4 4 2 2 3 3 4 4 3 4 5 4 4 5 6 7 9 12 14 14 13 12 11 11 12 12 14 15 17 17 17 18 17 17 20 23 24 26 28 29 30 32 33 34 35 35 36 36 36 36 37 37
3 5 6 10 12 11 11 8 7 8 7 4 5 10 12 13 14 7 2 5 8 9 12 11 7 3 3 3 4 4 3 3 4 3 3 4 4 3 4 3 3 3 3 5 5 5 5 5 5 7 10 13 15 14 13 12 12 12 13 13 14 15 16 16 17 17 17 16 18 22 24 25 28 29 30 32 32 33 34 35 36 36 36 36 37 37
3 2 4 8 10 8 6 5 7 14 12 10 15 18 16 15 16 9 2 8 8 5 9 15 8 3 5 8 6 5 5 3 3 3 2 4 4 3 4 4 3 4 4 5 5 5 5 6 6 6 9 13 14 14 14 13 13 13 14 15 16 15 16 16 16 16 16 16 18 21 24 25 27 28 29 30 31 32 33 34 35 35 35 36 36 37
4 4 8 10 6 2 4 6 13 19 17 19 19 19 17 15 16 14 12 11 8 7 10 14 10 8 10 10 7 6 4 3 5 4 3 4 4 4 4 5 5 6 5 5 5 6 6 7 6 5 8 11 12 13 14 14 15 16 16 17 15 14 15 15 14 16 16 17 19 21 23 25 26 27 28 29 30 31 32 33 34 35 35 35 36 37
4 7 9 9 2 4 3 8 15 17 14 15 19 21 21 19 19 21 22 16 13 11 11 7 13 18 15 10 9 7 4 6 9 4 1 3 6 6 5 5 5 6 6 6 7 6 6 7 7 5 7 9 10 12 13 14 17 18 18 18 16 14 14 14 13 15 16 18 19 21 22 23 24 25 27 28 29 30 31 32 33 34 34 35 36 37
4 6 6 8 4 5 3 6 14 14 8 10 17 20 21 24 25 26 25 20 17 17 10 5 7 16 10 8 10 10 7 7 6 4 3 5 7 7 6 6 7 7 7 8 8 7 6 7 6 6 6 7 9 11 12 14 16 17 18 17 17 16 14 13 13 14 16 18 19 20 20 21 23 24 26 27 29 29 30 31 32 33 34 34 36 37
3 5 6 7 4 4 2 3 8 10 9 10 12 15 21 26 26 23 18 12 13 18 12 2 8 13 6 8 9 8 4 3 3 6 8 8 8 9 9 9 9 9 9 9 8 6 6 6 6 6 6 7 10 12 13 15 16 16 16 16 17 17 14 13 13 14 17 18 19 19 20 21 22 23 25 26 27 28 29 30 31 32 33 34 35 37
3 3 4 7 6 1 2 5 6 5 5 5 10 19 24 24 20 16 13 13 17 17 10 6 13 11 8 10 8 5 5 7 9 11 10 10 11 11 10 10 9 10 10 9 8 5 5 6 6 6 7 11 14 15 16 17 16 16 16 16 17 17 15 14 15 16 17 18 19 20 20 21 22 22 23 24 25 26 27 29 30 32 33 34 35 36
6 6 5 8 9 4 2 6 8 7 5 4 15 21 21 19 16 12 12 17 20 13 9 11 14 6 9 11 10 8 10 13 12 11 11 12 12 10 9 9 9 9 9 8 7 6 6 5 5 8 13 16 17 18 18 17 17 18 17 16 16 16 16 16 16 17 18 19 20 21 21 22 22 22 23 24 24 25 26 28 30 31 32 34 35 35
9 10 7 7 7 4 4 6 8 6 6 10 12 12 18 19 18 17 18 22 22 17 12 11 11 3 7 11 13 12 13 14 12 12 11 8 8 7 6 7 8 8 8 7 6 5 5 6 7 12 17 20 19 19 19 17 18 18 17 15 15 16 18 18 18 19 19 20 21 21 22 22 23 23 23 24 24 25 27 28 29 31 31 32 33 33
12 10 6 5 4 3 3 5 7 8 13 9 2 4 17 23 23 25 23 18 17 18 16 15 18 14 10 11 12 11 11 10 8 8 7 4 4 5 6 7 8 7 7 7 5 5 5 5 8 13 18 20 20 19 18 18 17 17 16 16 15 17 19 20 20 21 22 22 22 22 22 23 23 24 24 24 25 25 27 28 28 29 29 29 30 30
12 10 4 2 3 4 3 6 10 8 7 6 4 0 12 17 18 19 14 9 13 19 20 21 26 21 11 9 7 6 5 5 4 5 6 6 6 7 7 8 7 6 7 6 6 7 7 6 9 14 18 20 20 19 18 18 17 16 16 15 15 17 20 21 22 23 24 24 24 23 23 23 23 23 24 24 25 26 27 27 28 28 28 28 28 28
7 10 6 3 1 3 6 9 9 4 8 10 6 3 8 10 13 14 10 12 20 23 20 21 24 19 10 10 6 5 2 3 5 7 8 8 8 9 9 8 7 7 7 8 9 11 12 11 11 14 16 18 18 17 17 16 15 14 14 15 15 17 19 22 24 24 24 25 25 25 25 25 24 24 24 24 25 26 27 27 28 28 28 28 28 28
2 5 8 8 3 1 5 6 6 6 10 9 4 7 10 11 13 15 9 12 16 18 18 19 21 16 8 9 7 6 3 3 7 9 9 8 7 8 8 7 7 7 7 9 11 12 12 12 12 13 14 14 15 14 13 13 12 12 13 14 14 16 20 22 23 23 23 24 25 25 25 26 26 26 26 26 26 27 27 27 28 28 28 28 28 28
2 1 3 7 4 3 7 7 8 11 9 2 8 12 12 11 13 12 4 10 9 13 16 17 16 12 10 11 10 8 6 6 8 8 9 6 4 5 6 5 4 4 5 7 7 8 10 11 12 13 13 13 12 11 10 10 9 11 13 13 13 15 19 20 20 19 20 22 23 24 24 25 25 26 26 27 27 27 27 27 27 27 27 27 27 26
5 2 3 6 5 6 10 8 6 7 4 3 10 11 8 11 15 12 4 8 7 12 15 17 18 16 15 14 10 9 9 10 7 5 5 2 2 3 3 2 2 2 2 3 5 6 7 8 10 12 12 11 11 10 9 8 8 10 13 13 11 13 17 18 18 18 18 19 21 22 23 24 24 25 26 26 26 26 26 26 26 26 26 25 25 25
7 5 6 8 6 5 8 9 6 4 3 5 8 8 10 13 12 9 8 4 5 8 11 15 17 13 10 10 8 8 11 10 5 2 2 3 2 1 2 2 2 1 2 4 4 4 5 6 8 9 9 9 9 8 7 6 7 10 12 12 11 12 14 15 15 16 17 18 19 21 21 22 23 24 24 25 25 25 25 25 25 25 25 25 24 24
9 8 7 9 7 4 6 8 5 6 6 8 5 3 9 11 7 7 5 1 3 6 6 8 10 8 9 11 11 10 11 9 5 4 4 4 3 2 2 1 1 1 3 3 2 2 4 5 5 5 6 7 6 6 6 5 7 9 10 11 12 13 12 11 12 14 15 17 18 19 20 21 22 22 23 23 23 23 24 23 23 23 24 23 23 23
11 10 9 10 7 4 6 8 6 8 7 14 13 3 6 8 6 4 3 0 2 5 6 6 7 9 11 11 12 11 8 6 5 5 3 3 3 2 2 2 2 1 1 1 1 3 4 5 5 4 5 6 5 5 5 5 7 8 9 10 12 12 11 10 10 11 12 15 16 17 17 18 19 21 22 22 23 23 23 23 22 22 22 23 23 22
8 9 9 9 9 8 9 11 7 4 5 16 15 8 7 6 2 3 5 3 2 2 4 5 6 8 11 11 10 9 5 3 5 5 2 2 2 2 2 2 2 2 0 1 3 4 5 5 5 5 6 6 6 6 5 5 6 8 9 10 11 10 9 8 9 9 10 12 14 15 16 16 17 18 19 20 22 22 22 22 22 22 22 23 24 24
14 13 6 5 9 8 6 5 1 2 5 12 8 5 9 10 4 2 4 5 3 3 4 5 6 7 8 8 8 6 4 4 4 3 3 3 2 1 1 1 1 1 1 2 2 4 5 5 5 5 6 8 8 7 6 5 5 7 9 10 9 8 7 7 8 9 10 12 12 13 14 15 16 17 18 19 20 19 20 21 21 21 22 23 24 25
8 9 4 2 5 4 5 2 1 1 6 10 3 1 8 12 5 2 3 3 5 5 4 4 7 7 7 7 7 5 4 5 4 3 3 3 2 1 1 1 2 3 2 2 3 4 4 5 5 5 7 9 9 9 8 6 5 6 8 9 8 7 6 7 8 8 10 11 11 12 13 14 15 17 17 18 19 19 20 21 21 22 23 23 23 24
1 5 3 3 7 6 9 8 7 4 8 11 6 4 5 5 2 2 3 2 3 5 3 3 6 8 7 7 8 7 6 5 5 4 3 3 3 2 2 2 2 3 3 3 4 4 5 5 6 7 8 10 10 10 9 7 6 5 6 6 6 5 5 6 7 8 9 9 9 10 12 13 14 16 16 17 19 19 20 21 23 24 24 25 25 24
3 5 4 5 9 9 7 6 6 4 7 9 6 3 5 7 5 3 1 1 3 5 3 3 5 7 7 5 5 6 6 4 5 5 4 2 3 3 2 1 1 3 4 4 4 4 5 7 7 8 9 10 10 10 8 8 7 5 4 4 4 4 5 6 6 7 7 8 8 9 10 11 13 14 15 17 19 20 21 23 25 27 28 30 31 30
6 7 7 7 8 5 4 3 5 3 1 5 7 7 9 10 7 4 2 3 5 6 5 5 3 3 5 5 4 6 7 4 3 5 5 3 3 3 2 2 4 5 5 6 6 6 7 8 9 9 9 10 9 8 8 8 7 6 5 4 4 3 4 5 6 6 6 7 7 8 9 10 12 13 14 16 17 19 20 22 24 27 28 30 32 32
8 11 9 7 8 10 9 7 9 7 5 9 14 15 13 7 6 7 5 4 5 5 6 7 5 4 4 3 3 5 7 4 2 4 6 4 4 3 3 4 5 6 6 7 8 8 9 10 10 11 11 10 9 8 9 9 8 8 7 5 4 3 3 5 5 5 5 5 6 7 8 9 10 12 13 14 15 17 18 19 21 23 23 24 26 28
11 13 12 11 13 13 9 11 13 11 9 10 13 15 11 5 7 7 6 6 6 4 5 7 7 5 3 3 3 3 5 4 3 5 7 6 5 5 5 6 7 7 8 9 10 11 12 12 12 12 12 11 10 10 10 10 10 9 8 6 5 4 4 4 5 5 5 5 5 6 7 8 9 10 11 12 13 14 14 14 15 18 20 20 21 23
Wind_Direction
165 171 192 199 193 189 187 198 203 192 196 199 202 216 224 229 229 211 141 97 25 280 260 248 254 263 264 259 255 253 228 235 253 252 247 243 240 237 233 232 227 228 234 223 213 217 214 214 214 212 215 218 219 220 218 218 218 218 218 218 219 221 221 219 218 218 217 217 220 222 223 226 230 234 235 234 233 233 233 234 237 237 237 238 238 237
182 196 195 194 190 183 184 193 189 158 183 197 201 216 223 232 242 207 167 115 87 270 262 258 269 269 264 262 259 251 244 247 250 250 251 247 240 237 239 241 238 238 238 222 225 224 216 214 213 212 215 217 218 219 218 218 218 218 218 219 219 220 221 220 218 218 218 218 221 222 224 226 229 233 234 236 236 236 237 238 241 241 240 241 241 238
195 209 189 181 180 175 179 188 190 184 183 193 194 211 223 216 246 238 195 179 133 252 274 283 283 277 271 265 259 251 244 247 247 246 251 252 247 237 234 239 241 248 247 236 237 228 216 214 210 210 214 216 218 220 220 220 218 218 219 219 220 221 222 221 220 219 219 221 223 224 224 226 229 231 235 239 240 239 238 239 241 242 241 242 242 241
190 204 180 168 170 173 178 183 187 185 177 189 186 201 219 169 216 241 186 168 193 241 288 297 290 279 274 264 254 245 235 237 241 242 246 246 249 247 239 235 233 240 243 237 238 229 215 211 209 212 214 213 214 218 220 219 217 217 218 218 219 220 220 221 222 221 221 223 227 228 228 230 232 235 239 242 243 242 241 240 239 239 239 239 241 242
145 154 161 156 170 176 172 175 181 184 182 198 210 212 213 174 218 252 33 313 238 201 273 300 291 270 259 256 255 246 225 232 237 240 248 239 237 249 250 245 235 232 237 238 240 231 211 208 211 214 214 212 211 214 217 215 214 214 216 217 216 216 217 217 219 222 222 223 227 229 230 232 236 238 237 234 235 237 238 239 238 238 237 237 239 240
142 128 149 155 172 178 169 177 184 183 186 200 221 221 219 210 219 232 6 319 272 234 107 332 289 262 244 264 267 267 244 249 242 233 249 245 229 238 247 247 238 233 236 240 247 244 219 212 215 215 213 211 212 218 221 217 215 216 218 218 215 215 216 214 214 217 219 220 222 224 223 224 227 230 228 225 226 229 233 235 237 238 238 238 238 239
157 149 165 165 170 175 176 189 185 177 190 209 196 199 206 204 193 186 233 290 279 269 26 358 277 279 303 283 271 271 268 263 247 234 240 243 235 230 234 241 238 236 235 235 245 249 237 222 215 214 214 212 218 225 224 220 221 222 223 222 219 219 219 217 215 212 215 217 218 221 221 221 222 225 226 226 228 229 231 234 236 237 238 239 237 237
137 153 174 167 164 174 187 196 182 182 199 201 150 162 177 182 183 192 215 252 281 314 283 207 249 284 283 273 261 259 268 264 248 239 232 228 235 227 221 229 230 232 230 227 236 240 239 231 220 218 219 220 225 228 224 222 226 226 226 225 223 222 222 223 220 212 211 215 217 220 225 226 225 226 228 228 229 230 232 235 236 236 237 239 237 235
124 158 173 165 165 186 195 172 162 179 201 171 141 151 163 171 173 177 191 248 334 332 272 201 139 274 270 254 234 226 250 260 252 244 241 233 236 231 222 225 225 227 227 226 233 237 236 234 230 229 228 229 231 229 226 227 229 228 226 225 222 222 224 227 223 215 214 217 218 220 224 227 228 228 230 230 229 230 231 233 235 235 235 237 237 234
127 182 176 168 178 190 157 127 155 179 185 119 135 117 101 94 79 82 115 52 28 285 266 219 158 255 280 239 214 210 233 257 260 252 252 247 244 240 231 230 231 232 234 235 244 251 251 247 245 244 242 241 238 236 234 232 232 230 229 227 224 225 227 228 224 219 220 220 219 220 221 225 228 228 229 229 229 230 229 229 230 231 232 233 235 235
44 26 181 172 192 159 116 96 140 170 140 125 131 104 90 79 56 53 63 62 291 261 258 208 177 221 284 234 200 211 236 271 274 260 256 254 255 252 241 241 250 258 256 249 252 259 260 256 253 250 246 245 244 243 239 236 234 233 232 230 228 229 228 225 223 221 221 218 218 222 221 223 226 226 225 225 225 226 224 222 224 226 227 230 233 234
98 137 168 129 276 123 117 103 43 100 138 135 135 124 113 90 78 98 54 123 237 248 270 217 182 205 241 229 177 310 311 281 262 264 269 267 268 265 254 251 267 275 261 246 241 245 250 246 241 242 243 245 246 245 241 237 235 234 233 230 228 230 228 224 223 221 218 216 218 222 222 222 223 222 221 222 221 220 218 218 220 222 224 228 231 232
119 142 153 67 255 167 136 132 76 98 162 146 137 144 137 129 154 194 206 197 231 236 81 10 179 213 243 259 285 287 280 262 243 251 268 272 275 277 289 300 267 263 260 253 252 250 250 248 240 240 245 248 247 243 241 239 236 233 232 228 226 229 228 225 223 218 216 217 218 220 220 221 221 219 219 220 219 219 217 217 216 217 220 223 225 227
137 336 226 163 204 207 170 158 147 168 183 162 157 164 164 160 181 207 206 206 240 229 151 112 115 249 264 276 274 272 279 288 274 260 263 268 276 286 304 303 280 265 261 259 268 271 265 262 255 255 258 256 252 247 243 242 238 234 232 229 227 230 230 225 221 218 218 220 220 220 220 219 218 218 218 219 219 219 218 217 215 217 219 220 222 226
164 203 203 178 161 182 183 176 149 143 161 176 169 177 194 177 195 210 203 210 225 187 172 170 175 244 250 27 308 258 269 282 274 271 275 272 273 286 293 289 280 272 269 266 269 268 263 262 260 257 257 258 259 256 249 245 241 237 234 231 229 231 229 224 222 220 220 222 223 223 222 219 218 218 218 219 220 219 219 218 216 217 219 220 224 229
174 187 178 143 123 164 168 157 129 130 149 193 161 187 235 206 177 179 210 239 159 281 212 194 231 256 270 310 285 265 269 270 257 246 273 281 276 273 271 272 278 282 285 283 277 273 268 265 261 254 257 265 268 265 257 250 244 239 236 234 232 233 230 226 225 222 222 225 227 226 225 223 221 220 219 219 221 221 221 221 218 219 221 222 226 231
177 121 100 77 132 167 162 150 154 146 156 175 180 199 205 47 70 138 171 52 64 258 233 192 251 272 287 286 272 258 280 281 257 215 206 270 281 268 270 269 274 286 293 291 286 283 282 279 274 266 265 268 270 270 266 260 252 246 241 238 236 236 234 230 228 225 225 228 229 228 229 227 226 224 223 222 222 222 222 222 220 220 223 225 227 230
152 107 74 93 143 160 32 141 160 159 149 169 188 178 134 41 4 202 225 144 181 248 252 202 243 259 258 264 227 209 276 294 273 216 160 202 270 274 286 278 270 279 289 294 291 282 279 282 279 281 282 277 273 273 271 268 262 254 247 242 239 237 235 233 231 228 227 229 230 230 229 229 228 227 227 225 224 224 223 223 223 223 224 226 228 228
138 106 67 334 137 124 34 155 169 205 230 189 180 158 146 210 210 184 208 206 199 236 257 225 240 252 235 222 210 252 283 315 300 222 130 157 257 283 294 298 296 291 297 306 310 302 290 283 277 284 290 286 281 277 274 272 269 260 252 247 242 240 238 236 234 231 228 229 230 230 230 230 229 228 229 227 226 224 221 222 225 225 225 227 227 226
134 117 143 233 126 132 148 187 189 184 166 31 161 171 177 252 208 188 191 208 208 221 241 242 244 242 218 204 212 231 257 299 292 273 144 166 216 257 284 303 306 302 306 306 305 305 299 291 287 289 292 289 282 277 275 274 273 268 262 256 248 245 242 239 237 233 230 229 229 230 230 229 228 227 227 225 222 221 222 224 226 227 226 226 226 225
143 142 143 129 138 163 179 201 197 179 165 168 179 184 190 185 208 226 200 210 232 219 233 260 265 250 194 183 206 209 226 264 284 294 200 156 205 256 260 267 279 293 297 295 300 303 300 295 294 298 300 294 283 276 273 271 272 271 267 262 256 251 246 242 239 235 232 231 230 229 228 226 225 225 223 222 222 222 224 226 227 228 228 227 226 225
184 144 136 143 175 186 176 161 187 176 176 182 186 194 195 182 170 192 194 184 252 244 224 265 279 268 175 164 206 210 234 273 294 272 254 182 221 251 253 238 250 273 280 289 300 300 301 295 293 300 301 296 284 276 271 265 263 264 264 262 259 254 250 246 241 237 234 233 232 230 227 225 225 225 223 223 223 223 224 224 226 228 227 225 225 224
57 115 122 135 164 162 92 39 15 255 212 211 221 213 201 191 188 199 199 165 161 212 71 48 289 282 148 155 205 223 235 33 190 228 228 213 217 229 246 243 242 254 265 280 288 286 289 289 292 298 296 289 279 269 266 262 259 259 260 260 258 255 253 251 246 240 237 235 233 231 230 228 226 225 224 223 223 223 223 225 227 228 226 224 224 222
149 126 113 109 112 84 63 59 51 23 303 234 232 218 201 204 198 216 266 152 165 194 174 183 249 253 136 128 199 252 242 196 243 237 227 235 220 210 240 252 244 252 264 273 276 272 272 283 294 296 290 282 273 265 262 260 259 260 259 258 258 256 256 254 249 244 240 237 235 233 230 228 226 225 224 223 223 224 224 225 226 226 224 223 222 221
169 152 137 126 132 149 150 184 204 196 207 215 201 180 204 204 179 137 341 160 202 209 189 195 239 225 135 107 194 232 232 223 230 227 230 249 257 243 250 255 251 257 269 272 276 281 285 296 298 290 283 279 274 267 261 260 259 260 260 258 258 258 256 254 249 245 241 237 235 233 230 228 227 225 224 224 224 224 224 224 224 224 222 221 220 218
139 167 165 146 155 175 181 193 201 175 169 185 179 190 205 199 190 190 159 193 224 207 184 206 230 157 136 219 214 197 209 230 222 206 221 240 249 258 251 253 257 261 273 279 288 295 299 302 290 280 281 281 279 274 267 266 265 263 263 262 263 264 261 256 250 246 243 239 235 233 230 228 227 226 225 225 224 224 223 222 222 221 220 218 217 215
106 167 224 193 181 177 161 151 122 120 141 187 194 196 201 199 199 198 190 216 208 146 189 218 216 145 183 206 215 211 198 209 231 225 215 225 240 249 244 257 265 263 272 278 283 287 290 290 281 278 285 288 290 285 276 272 271 268 268 267 269 272 270 264 254 246 244 241 237 233 230 228 228 227 227 226 226 225 223 222 221 220 218 217 215 212
120 179 213 205 203 11 53 109 126 138 169 191 188 190 195 193 197 202 214 214 156 138 227 218 189 216 221 196 213 236 192 211 268 259 216 218 243 245 244 261 268 270 277 275 274 276 278 286 287 289 299 303 303 297 287 280 274 269 267 267 270 275 275 270 259 246 243 241 237 234 231 229 228 228 227 227 226 224 223 221 220 218 217 216 213 212
141 192 200 183 155 11 68 136 151 163 178 180 180 189 192 190 195 205 218 210 165 188 236 167 168 219 224 186 209 235 218 257 277 282 192 227 253 250 241 249 259 269 281 281 279 278 276 289 298 301 309 311 308 304 296 286 279 271 266 263 264 267 271 271 262 247 242 241 238 236 234 231 229 227 226 225 224 223 221 220 218 216 215 213 211 209
172 188 180 157 117 24 43 156 170 170 158 171 190 195 191 195 201 207 215 206 191 217 244 98 178 235 225 183 218 240 251 271 297 327 295 267 270 272 269 275 278 280 282 278 277 280 285 293 298 301 307 307 304 305 300 291 284 275 267 262 258 258 263 265 259 248 242 241 241 239 236 233 229 226 224 222 221 220 218 216 214 213 211 209 208 205
203 180 157 149 127 30 18 165 169 166 164 177 196 204 205 207 208 213 216 198 204 235 247 267 269 259 210 177 219 240 261 284 272 264 265 260 259 267 274 281 285 283 281 279 277 284 293 295 298 302 301 300 306 307 300 294 288 277 268 261 255 253 254 253 250 244 241 240 240 239 236 232 229 225 222 220 218 216 214 212 210 208 206 204 203 201
166 167 149 153 162 198 186 151 137 131 141 178 215 218 213 211 210 214 215 199 208 225 217 220 260 252 171 166 199 214 230 238 239 245 254 256 254 259 267 271 274 273 277 283 286 288 289 292 301 305 297 301 306 305 301 296 288 275 266 259 252 247 243 241 239 238 238 237 236 235 232 230 227 224 221 218 216 213 211 209 207 205 202 200 198 196
145 148 148 166 175 184 170 149 135 111 96 229 234 218 202 201 203 204 217 217 214 210 185 206 238 226 136 159 187 197 221 233 237 242 247 253 255 253 252 257 263 268 271 277 283 289 294 290 287 286 290 296 299 299 301 296 283 274 269 261 252 241 232 231 231 232 233 233 232 230 228 226 223 221 219 217 215 213 210 207 204 202 199 197 196 196
150 147 153 173 167 156 163 143 125 134 189 227 234 201 181 188 193 195 214 217 209 207 214 232 251 228 135 170 188 194 215 226 231 237 239 246 256 252 242 244 253 263 269 273 277 281 285 280 281 288 293 296 298 300 300 294 283 278 271 259 247 234 225 225 226 226 228 229 229 227 225 222 219 217 217 215 213 211 207 204 201 199 197 196 195 195
160 151 156 165 139 134 156 135 146 200 222 234 302 158 178 185 190 201 216 217 204 210 226 247 255 239 194 181 188 193 212 225 233 246 251 252 251 248 248 246 246 255 266 277 280 268 263 271 286 295 299 300 301 301 299 294 289 280 267 254 243 230 222 220 222 223 223 224 225 224 221 218 215 214 213 212 209 207 204 202 199 197 196 195 195 195
164 159 136 89 113 126 133 173 192 218 255 271 337 169 184 179 183 203 226 241 216 212 216 227 238 234 198 163 179 199 220 248 269 262 245 234 223 224 238 244 241 243 252 260 265 267 275 288 293 295 299 303 303 300 297 295 290 279 265 253 242 231 222 220 221 222 221 220 221 221 219 216 213 211 210 208 204 202 201 200 199 199 198 198 198 199
168 163 142 116 166 157 158 196 217 298 306 262 240 191 175 166 169 185 215 239 220 211 211 219 231 232 191 147 173 212 233 297 289 264 238 224 215 219 229 240 242 239 243 253 262 273 285 297 300 299 301 303 304 303 299 294 286 274 261 249 239 230 223 221 221 221 220 220 220 220 218 216 214 212 211 208 204 203 202 202 203 203 203 202 201 202
181 169 162 168 191 131 156 193 227 254 259 246 188 146 157 165 172 175 203 245 225 203 205 218 229 229 179 145 181 194 162 255 266 262 253 232 206 212 223 232 242 244 248 260 270 280 293 304 308 308 307 305 305 308 305 295 282 265 252 243 236 230 226 225 225 223 222 221 222 221 220 218 217 216 215 213 211 209 207 207 208 208 208 207 206 207
92 25 172 173 164 163 176 188 211 221 233 200 143 159 166 162 153 147 201 264 224 184 194 212 222 217 184 184 196 168 154 225 238 245 257 244 193 202 214 216 231 240 244 257 271 283 297 308 310 310 312 310 309 312 308 297 278 255 245 242 236 231 230 231 232 232 229 227 226 225 223 222 220 219 218 217 217 216 213 212 211 210 209 208 209 210
154 163 194 191 184 184 191 202 219 226 246 160 163 167 154 138 131 132 206 254 195 173 186 194 204 209 198 194 188 161 182 219 225 232 253 235 151 191 199 190 190 163 203 257 276 285 296 307 310 312 314 314 314 316 309 292 266 247 245 244 239 237 237 238 239 240 238 234 232 229 228 227 225 223 222 221 221 219 216 214 212 210 209 208 209 211
177 183 195 204 203 192 202 219 239 250 231 185 178 162 138 135 141 169 210 219 168 185 193 187 194 201 180 166 167 180 205 215 197 156 138 109 122 167 162 190 208 189 267 277 275 281 293 302 308 312 313 314 319 321 312 287 255 247 246 244 244 247 248 246 244 243 241 238 236 233 231 230 229 228 228 225 223 220 217 215 213 212 210 209 209 210
183 184 195 208 204 194 209 221 256 270 213 157 140 163 156 152 176 210 207 162 170 183 174 171 176 163 149 165 181 196 207 202 172 146 151 159 163 147 146 198 242 282 296 287 248 279 311 317 319 318 316 322 325 321 315 285 257 254 250 246 251 259 264 260 252 248 244 240 239 236 233 231 229 229 228 225 222 219 217 215 215 214 211 209 207 205
179 172 188 201 184 165 199 203 231 260 201 138 120 148 205 190 197 184 136 42 239 172 146 155 166 161 165 178 189 195 194 180 180 197 199 168 144 155 187 185 172 217 305 325 263 310 336 336 338 344 343 342 340 331 324 294 272 270 265 262 268 274 275 270 261 254 246 241 240 238 235 234 231 227 226 223 220 218 216 215 214 211 208 206 203 199
174 177 193 199 181 177 196 198 207 262 163 143 143 168 201 204 207 148 150 175 235 184 157 157 167 176 178 177 182 186 171 153 191 208 189 127 129 170 176 150 151 166 61 334 306 335 353 353 354 1 1 0 358 353 344 316 296 291 285 287 293 290 281 271 258 246 240 238 237 236 235 234 230 227 224 221 218 215 212 211 210 206 205 203 199 194
194 189 180 180 187 199 213 200 211 356 156 165 164 160 175 188 221 247 181 170 172 189 181 162 165 177 181 175 169 167 171 185 189 160 128 140 152 128 104 71 77 88 59 8 353 359 6 15 18 14 16 18 14 11 8 351 324 311 307 310 310 298 284 272 254 240 235 234 232 231 231 229 226 224 223 221 217 212 209 208 204 201 201 199 197 195
197 176 142 134 175 228 278 241 120 23 185 186 208 257 187 192 204 221 206 187 168 170 170 164 165 164 164 165 159 161 188 189 163 142 152 155 138 90 40 23 33 41 39 33 25 15 19 33 30 25 34 33 25 23 24 14 356 336 326 324 318 301 286 271 257 247 240 236 232 229 226 222 220 220 219 219 217 213 213 211 204 200 199 197 197 198
222 162 140 127 145 188 235 206 161 174 198 193 207 249 230 224 220 183 216 231 155 145 147 153 155 152 155 163 165 170 176 159 143 154 160 124 110 94 44 24 17 29 46 55 45 33 39 44 38 39 46 41 32 32 30 23 17 4 345 336 324 303 286 269 258 252 248 243 239 234 228 222 219 216 214 214 213 212 214 213 208 204 201 199 199 199
194 156 146 161 165 184 217 190 154 184 205 196 201 224 224 221 206 166 190 189 121 114 104 110 133 143 152 161 159 147 145 148 148 144 133 112 108 103 86 55 44 59 71 72 61 54 57 56 54 55 56 48 41 37 32 30 29 21 6 355 333 306 288 271 258 252 251 247 242 238 233 228 224 219 215 214 212 210 211 211 210 209 208 207 206 203
127 157 174 171 171 202 249 194 149 132 191 214 224 228 223 213 185 141 122 132 127 117 105 95 89 119 140 149 141 125 131 163 174 132 122 120 104 93 92 89 85 90 92 82 69 66 67 64 65 70 67 57 49 42 37 35 31 24 19 8 346 325 302 283 271 261 256 250 244 240 235 232 231 226 223 221 217 215 215 214 213 214 216 218 217 213
149 180 179 155 179 217 225 183 161 163 190 208 213 216 217 199 145 139 142 126 131 142 129 110 82 57 84 102 119 130 135 158 176 128 113 103 94 97 104 104 102 99 91 85 79 75 72 69 71 76 73 63 55 49 44 39 33 28 24 12 358 349 327 309 298 285 272 261 255 251 244 238 237 233 231 229 225 223 224 224 222 221 222 225 224 221
183 183 174 179 206 215 188 161 177 198 207 203 202 203 201 163 137 156 157 140 147 157 137 125 120 113 99 56 36 102 126 139 151 125 105 97 100 103 101 105 110 104 92 90 87 79 74 73 73 74 71 64 59 55 50 45 40 34 28 20 13 4 348 336 322 308 301 289 277 271 261 252 249 244 238 236 233 229 230 232 232 229 228 229 230 227